User: anonymous   Login
Location: Allie Creek
(37.5926°N, 89.8526°W)
Time: 12:28:15
(UTC+00:00)
Language:

SL-16 R/B - Orbit

View from above orbital plane
View from above orbital plane
View from above satellite
View from above satellite

Ground track
Ground track

The orbit data is extracted from the following two-line orbital elements,

1 31793U 07029B   24056.93143480 -.00000149  00000-0 -52406-4 0  9997
2 31793  70.9749 293.4588 0002197 276.6147  94.4487 14.14593573860329
Epoch (UTC): 25 February 2024 22:21:15
Eccentricity: 0.0002197
inclination: 70.9749°
perigee height: 842 km
apogee height: 845 km
right ascension of ascending node: 293.4588°
argument of perigee: 276.6147°
revolutions per day: 14.14593573
mean anomaly at epoch: 94.4487°
orbit number at epoch: 86032

The dashed part of the orbit path shows where the satellite is in the earth's shadow,  

DLR